Weather History for Juliana Airport, St. Martin

Change the Weather History Date:

Tuesday, October 12, 2010

  Actual Average Record
Temperature  
Mean Temperature 84 °F -  
Max Temperature 87 °F 85 °F 91 °F (2004)
Min Temperature 80 °F 75 °F 75 °F (1996)
Cooling Degree Days 18    
Growing Degree Days 34 (Base 50)    
Moisture  
Dew Point 76 °F    
Average Humidity 78    
Maximum Humidity 89    
Minimum Humidity 62    
Precipitation  
Precipitation 0.01 in 0.15 in - ()
Sea Level Pressure  
Sea Level Pressure 29.95 in    
Wind  
Wind Speed 4 mph ()    
Max Wind Speed 7 mph    
Max Gust Speed -    
Visibility 6.2 miles    
Events      
Averages and records for this station are not official NWS values.
T = Trace of Precipitation, MM = Missing Value Source: Averaged Metar Reports

Daily Weather History Graph

Daily Weather History Graph

Search for Another Location

Airport:

Trip Planner

Search our weather history database for the weather conditions in past years. The results will help you decide how hot, cold, wet, or windy it might be!

Date:

Astronomy

Oct. 12, 2010 Rise Set
Actual Time 6:05 AM AST 5:52 PM AST
Civil Twilight 5:43 AM AST 6:14 PM AST
Nautical Twilight 5:17 AM AST 6:39 PM AST
Astronomical Twilight 4:52 AM AST 7:04 PM AST
Moon 10:50 AM AST (10/12) 10:07 PM AST (10/12)
Length of Visible Light 12h 31m
Length of Day
11h 47m
Waxing Crescent, 28% of the Moon is Illuminated
Oct 12
Waxing Crescent
Oct 14
First Quarter
Oct 22
Full
Oct 30
Last Quarter
Nov 6
New

Hourly Weather History & Observations

Time (AST) Temp. Heat Index Dew Point Humidity Pressure Visibility Wind Dir Wind Speed Gust Speed Precip Events Conditions
12:00 AM 82.4 °F 90.9 °F 77.0 °F 84% 29.95 in 6.2 mi ESE 4.6 mph - N/A   Partly Cloudy
1:00 AM 80.6 °F 87.1 °F 77.0 °F 89% 29.95 in 6.2 mi Variable 3.5 mph - N/A   Partly Cloudy
2:00 AM 82 °F - 77 °F 81% 29.94 in 22 mi ESE 4.6 mph - -   Scattered Clouds
2:00 AM 82.4 °F 90.9 °F 77.0 °F 84% 29.92 in 6.2 mi ESE 4.6 mph - N/A   Partly Cloudy
3:00 AM 80.6 °F 87.1 °F 77.0 °F 89% 29.92 in 6.2 mi Variable 2.3 mph - N/A   Partly Cloudy
4:00 AM 80.6 °F 87.1 °F 77.0 °F 89% 29.92 in 6.2 mi Variable 2.3 mph - N/A   Scattered Clouds
5:00 AM - - - %  in 22 mi 3.5 mph - -  
5:00 AM 80.6 °F 87.1 °F 77.0 °F 89% 29.92 in 6.2 mi Variable 3.5 mph - N/A   Scattered Clouds
6:00 AM 80.6 °F 87.1 °F 77.0 °F 89% 29.95 in 6.2 mi Variable 1.2 mph - N/A   Partly Cloudy
7:00 AM 82.4 °F 90.9 °F 77.0 °F 84% 29.95 in 6.2 mi ESE 4.6 mph - N/A   Partly Cloudy
8:00 AM 85 °F - 77 °F 71% 29.98 in 25 mi ESE 4.6 mph - -   Partly Cloudy
8:00 AM 84.2 °F 94.1 °F 77.0 °F 79% 29.98 in 6.2 mi ESE 4.6 mph - N/A   Scattered Clouds
9:00 AM 86.0 °F 96.9 °F 77.0 °F 74% 29.98 in 6.2 mi ESE 5.8 mph - N/A   Partly Cloudy
10:00 AM 86.0 °F 96.9 °F 77.0 °F 74% 30.01 in 6.2 mi SE 6.9 mph - N/A   Scattered Clouds
11:00 AM 86 °F - 77 °F 68% 29.99 in 28 mi SSE 6.9 mph - -   Partly Cloudy
11:00 AM 86.0 °F 96.9 °F 77.0 °F 74% 29.98 in 6.2 mi SSE 6.9 mph - N/A   Scattered Clouds
12:00 PM 86.0 °F 96.9 °F 77.0 °F 74% 29.95 in 6.2 mi SSE 5.8 mph - N/A   Scattered Clouds
2:00 PM 87 °F - 76 °F 62% 29.93 in 40 mi South 5.8 mph - -   Scattered Clouds
2:00 PM 87.8 °F 99.7 °F 77.0 °F 70% 29.92 in 6.2 mi SSE 6.9 mph - N/A   Partly Cloudy
3:00 PM 86.0 °F 95.1 °F 75.2 °F 70% 29.92 in 6.2 mi SE 6.9 mph - N/A   Partly Cloudy
4:00 PM 86.0 °F 95.1 °F 75.2 °F 70% 29.92 in 6.2 mi ESE 5.8 mph - N/A   Partly Cloudy
5:00 PM 85 °F - 75 °F 65% 29.93 in 40 mi ESE 5.8 mph - -   Scattered Clouds
5:00 PM 86.0 °F 95.1 °F 75.2 °F 70% 29.92 in 6.2 mi ESE 5.8 mph - N/A   Partly Cloudy
6:00 PM 82.4 °F 89.5 °F 75.2 °F 79% 29.92 in 6.2 mi East 4.6 mph - N/A   Partly Cloudy
7:00 PM 82.4 °F 89.5 °F 75.2 °F 79% 29.95 in 6.2 mi ENE 4.6 mph - N/A   Partly Cloudy
8:00 PM 82 °F - 75 °F 75% 29.97 in 25 mi ENE 4.6 mph - -   Scattered Clouds
8:00 PM 82.4 °F 89.5 °F 75.2 °F 79% 29.95 in 6.2 mi ENE 4.6 mph - N/A   Partly Cloudy
9:00 PM 82.4 °F 89.5 °F 75.2 °F 79% 29.98 in 6.2 mi East 4.6 mph - N/A   Partly Cloudy
10:00 PM 82.4 °F 89.5 °F 75.2 °F 79% 29.98 in 6.2 mi ENE 5.8 mph - N/A   Partly Cloudy
11:00 PM 81 °F - 76 °F 80% 29.97 in 25 mi 3.5 mph - -   Scattered Clouds